Reynoldsville, PA

3:08 AM EST on December 06, 2016 (GMT -0500)
Du Bois-Jefferson County

Weather History for KDUJ - October, 2014

Change the Weather History Date:

Thursday, October 30, 2014

  Actual Average Record
Temperature  
Mean Temperature 45 °F 45 °F  
Max Temperature 49 °F 54 °F 73 °F (1971)
Min Temperature 40 °F 36 °F 23 °F (1975)
Degree Days  
Heating Degree Days 20 20  
Month to date heating degree days 392 475  
Since 1 July heating degree days 629 721  
Cooling Degree Days 0 0  
Month to date cooling degree days 2 0  
Year to date cooling degree days 412 360  
Moisture  
Dew Point 36 °F    
Average Humidity 76    
Maximum Humidity 92    
Minimum Humidity 60    
Precipitation  
Precipitation 0.00 in 0.11 in 0.52 in (1970)
Month to date precipitation 2.92 3.04  
Sea Level Pressure  
Sea Level Pressure 30.04 in    
Wind  
Wind Speed 6 mph (WNW)    
Max Wind Speed 14 mph    
Max Gust Speed 17 mph    
Visibility 10 miles    
Events      
T = Trace of Precipitation, MM = Missing Value Source: NWS Daily Summary

Daily Weather History Graph

Daily Weather History Graph

Search for Another Location

Airport or City:

Trip Planner

Search our weather history database for the weather conditions in past years. The results will help you decide how hot, cold, wet, or windy it might be!

Date:

Astronomy

Oct. 30, 2014 Rise Set
Actual Time 7:44 AM EDT 6:13 PM EDT
Civil Twilight 7:15 AM EDT 6:42 PM EDT
Nautical Twilight 6:43 AM EDT 7:14 PM EDT
Astronomical Twilight 6:11 AM EDT 7:46 PM EDT
Moon 1:47 PM EDT (10/30) No Moon Set
Length of Visible Light 11h 26m
Length of Day
10h 29m
Waxing Crescent, 45% of the Moon is Illuminated
Oct 30
Waxing Crescent
Oct 30
First Quarter
Nov 6
Full
Nov 14
Last Quarter
Nov 22
New

Hourly Weather History & Observations

Time (EDT) Temp. Windchill Dew Point Humidity Pressure Visibility Wind Dir Wind Speed Gust Speed Precip Events Conditions
12:53 AM 43.0 °F 36.8 °F 36.0 °F 76% 30.01 in 10.0 mi WNW 11.5 mph 17.3 mph N/A   Overcast
1:53 AM 42.1 °F 36.6 °F 36.0 °F 79% 30.01 in 10.0 mi WNW 9.2 mph - N/A   Overcast
2:15 AM 42.1 °F 38.4 °F 36.0 °F 79% 29.99 in 10.0 mi WNW 5.8 mph - N/A   Overcast
2:53 AM 42.1 °F 37.1 °F 36.0 °F 79% 30.00 in 10.0 mi WNW 8.1 mph - N/A   Overcast
3:20 AM 41.0 °F 36.4 °F 37.0 °F 86% 29.99 in 10.0 mi WNW 6.9 mph - N/A   Overcast
3:53 AM 41.0 °F 37.1 °F 37.0 °F 86% 30.01 in 10.0 mi WNW 5.8 mph - N/A   Overcast
4:07 AM 41.0 °F 36.4 °F 37.0 °F 86% 29.99 in 10.0 mi WNW 6.9 mph - N/A   Overcast
4:53 AM 41.0 °F 36.4 °F 37.0 °F 86% 30.01 in 10.0 mi NW 6.9 mph - N/A   Overcast
5:40 AM 41.0 °F 36.4 °F 37.0 °F 86% 30.01 in 10.0 mi NW 6.9 mph - N/A   Overcast
5:53 AM 41.0 °F 38.0 °F 37.0 °F 86% 30.03 in 10.0 mi WNW 4.6 mph - N/A   Overcast
6:04 AM 41.0 °F 39.0 °F 37.0 °F 86% 30.01 in 10.0 mi West 3.5 mph - N/A   Overcast
6:32 AM 39.9 °F 37.8 °F 37.0 °F 89% 30.02 in 10.0 mi West 3.5 mph - N/A   Overcast
6:53 AM 39.9 °F 35.8 °F 37.9 °F 93% 30.04 in 10.0 mi West 5.8 mph - N/A   Overcast
7:28 AM 39.9 °F 35.1 °F 37.9 °F 93% 30.03 in 10.0 mi West 6.9 mph - N/A   Overcast
7:53 AM 41.0 °F 36.4 °F 37.9 °F 89% 30.05 in 10.0 mi WNW 6.9 mph - N/A   Overcast
8:09 AM 41.0 °F 36.4 °F 37.9 °F 89% 30.03 in 10.0 mi WNW 6.9 mph - N/A   Overcast
8:21 AM 41.0 °F 36.4 °F 37.9 °F 89% 30.04 in 10.0 mi West 6.9 mph - N/A   Overcast
8:53 AM 41.0 °F 36.4 °F 37.9 °F 89% 30.07 in 10.0 mi WNW 6.9 mph - N/A   Overcast
9:12 AM 42.1 °F 37.7 °F 37.9 °F 85% 30.05 in 10.0 mi WNW 6.9 mph - N/A   Overcast
9:53 AM 43.0 °F 36.8 °F 37.0 °F 80% 30.08 in 10.0 mi NW 11.5 mph 16.1 mph N/A   Overcast
10:20 AM 43.0 °F 38.2 °F 36.0 °F 76% 30.05 in 10.0 mi NNW 8.1 mph - N/A   Mostly Cloudy
10:40 AM 44.1 °F 39.0 °F 35.1 °F 71% 30.05 in 10.0 mi NNW 9.2 mph - N/A   Mostly Cloudy
10:53 AM 46.0 °F 40.6 °F 36.0 °F 68% 30.07 in 10.0 mi WNW 11.5 mph - N/A   Mostly Cloudy
11:53 AM 48.0 °F - 36.0 °F 63% 30.07 in 10.0 mi West 9.2 mph - N/A   Mostly Cloudy
12:53 PM 46.0 °F 41.9 °F 33.1 °F 61% 30.07 in 10.0 mi NW 8.1 mph - N/A   Overcast
1:53 PM 45.0 °F 40.6 °F 34.0 °F 65% 30.06 in 10.0 mi WNW 8.1 mph - N/A   Overcast
2:53 PM 46.0 °F 43.1 °F 34.0 °F 63% 30.05 in 10.0 mi Variable 5.8 mph - N/A   Overcast
3:53 PM 48.9 °F - 35.1 °F 59% 30.04 in 10.0 mi West 8.1 mph - N/A   Overcast
4:53 PM 46.0 °F 42.5 °F 33.1 °F 61% 30.04 in 10.0 mi WNW 6.9 mph - N/A   Overcast
5:53 PM 45.0 °F 40.6 °F 34.0 °F 65% 30.05 in 10.0 mi West 8.1 mph - N/A   Overcast
6:53 PM 44.1 °F 40.1 °F 37.0 °F 76% 30.06 in 10.0 mi West 6.9 mph - N/A   Overcast
7:53 PM 43.0 °F 39.5 °F 37.0 °F 80% 30.06 in 10.0 mi West 5.8 mph - N/A   Overcast
8:53 PM 42.1 °F - 37.0 °F 82% 30.05 in 10.0 mi Calm Calm - N/A   Overcast
9:53 PM 41.0 °F - 37.0 °F 86% 30.05 in 10.0 mi Calm Calm - N/A   Overcast
10:53 PM 39.9 °F 37.8 °F 37.9 °F 93% 30.04 in 10.0 mi WSW 3.5 mph - N/A   Overcast
11:53 PM 41.0 °F - 37.0 °F 86% 30.03 in 10.0 mi Calm Calm - N/A   Overcast